Home > Weather > Makassar > Past weeks

Flag for Indonesia Weather for the Past 2 Weeks in Makassar, South Sulawesi, Indonesia

Now
79 °F

Passing clouds.


Feels Like: 83 °F
Forecast: 79 / 86 °F
Wind: 2 mph from North

Location: Ujung Pandang / Hasanuddin

Current Time: Feb 12, 2016 at 11:06:48 PM

Latest Report: Feb 12, 2016 at 10:30 PM


Visibility: 5 mi

Pressure: 29.92 "Hg

Humidity: 100%

Dew point: 79 °F

Location of MakassarLocation

Historic Weather in Makassar — Graph

°F

Makassar Temperature Yesterday

Maximum temperature yesterday: 88 °F (at 11:00 AM)
Minimum temperature yesterday: 75 °F (at 9:30 PM)
Average temperature yesterday: 79 °F

High & Low Weather Summary for the Past Weeks

 TemperatureHumidityPressure
High91 °F (Jan 29, 12:00 PM)100% (Jan 28, 10:00 PM)29.95 "Hg (Jan 28, 10:00 PM)
Low75 °F (Jan 31, 3:00 AM)59% (Feb 9, 10:30 AM)29.71 "Hg (Jan 31, 2:00 PM)
Average82 °F93%29.81 "Hg
* Reported Jan 28 10:00 PM — Feb 12 10:00 PM, Makassar, Weather by CustomWeather, © 2016

Note: Actual official high and low records may vary slightly from our data, if they occured in-between our weather recording intervals... More about our weather records

Advertising

Makassar Weather History for the Previous 24 Hours

 ConditionsComfort  
Time TempWeatherWind HumidityBarometerVisibility
10:00 PM
Fri, Feb 12
79 °FPassing clouds.3 mph100%29.92 "Hg5 mi
9:30 PM79 °FPassing clouds.5 mph100%29.92 "Hg5 mi
9:00 PM79 °FPassing clouds.3 mph100%29.92 "Hg5 mi
8:30 PM79 °FLight rain. Passing clouds.3 mph100%29.89 "Hg4 mi
8:00 PM79 °FPassing clouds.3 mph100%29.89 "Hg4 mi
7:30 PM79 °FPassing clouds.No wind100%29.89 "Hg5 mi
7:00 PM79 °FPassing clouds.2 mph100%29.86 "Hg5 mi
6:30 PM79 °FPassing clouds.2 mph100%29.86 "Hg5 mi
6:00 PM77 °FPassing clouds.2 mph100%29.86 "Hg5 mi
5:30 PM77 °FLight rain. Scattered clouds.6 mph100%29.86 "Hg4 mi
5:00 PM77 °FLight rain. Scattered clouds.7 mph100%29.86 "Hg4 mi
4:30 PM81 °FLight rain. Scattered clouds.3 mph100%29.83 "Hg4 mi
4:00 PM81 °FLight rain. Scattered clouds.2 mph100%29.83 "Hg4 mi
3:30 PM81 °FLight rain. Scattered clouds.6 mph100%N/A3 mi
3:00 PM84 °FLight rain. Partly sunny.2 mph89%29.83 "Hg4 mi
2:30 PM84 °FLight rain. Scattered clouds.3 mph89%N/A5 mi
2:00 PM84 °FLight rain. Scattered clouds.2 mph89%29.83 "Hg5 mi
1:30 PM84 °FPassing clouds.3 mph89%29.83 "Hg6 mi
1:00 PM84 °FLight rain. Scattered clouds.5 mph89%29.86 "Hg5 mi
12:30 PM82 °FLight rain. Scattered clouds.6 mph100%29.86 "Hg5 mi
12:00 PM82 °FLight rain. Scattered clouds.6 mph100%29.89 "Hg5 mi
11:30 AM81 °FLight rain. Scattered clouds.6 mph100%29.89 "Hg5 mi
11:00 AM81 °FLight rain. Scattered clouds.6 mph100%29.92 "Hg5 mi
10:30 AM79 °FLight rain. Scattered clouds.6 mph100%29.92 "Hg5 mi
10:00 AM79 °FLight rain. Partly sunny.7 mph100%29.92 "Hg4 mi
9:30 AM77 °FLight rain. Partly sunny.6 mph100%29.95 "Hg4 mi
9:00 AM77 °FLight rain. Partly sunny.6 mph100%29.95 "Hg4 mi
8:30 AM77 °FLight rain. Partly sunny.5 mph100%29.95 "Hg3 mi
8:00 AM79 °FLight rain. Partly sunny.2 mph100%29.95 "Hg4 mi
7:30 AM77 °FLight rain. Partly sunny.2 mph100%29.92 "Hg4 mi
7:00 AM77 °FLight rain. Partly sunny.7 mph100%29.92 "Hg4 mi
6:00 AM75 °FLight rain. Passing clouds.5 mph100%29.86 "Hg4 mi
5:30 AM75 °FLight rain. Passing clouds.3 mph100%29.86 "Hg4 mi
5:00 AM75 °FLight rain. Passing clouds.No wind100%29.86 "Hg4 mi
4:30 AM75 °FLight rain. Passing clouds.No wind100%29.86 "Hg4 mi
4:00 AM75 °FLight rain. Passing clouds.3 mph100%29.86 "Hg3 mi
3:30 AM75 °FLight rain. Passing clouds.2 mph100%29.83 "Hg3 mi
3:00 AM75 °FLight rain. Passing clouds.2 mph100%29.83 "Hg3 mi
12:30 AM75 °FRain. Passing clouds.5 mph100%29.89 "Hg2 mi
12:00 AM75 °FRain. Passing clouds.3 mph100%29.92 "Hg2 mi
11:30 PM
Thu, Feb 11
75 °FRain. Passing clouds.3 mph100%N/A2 mi
11:00 PM75 °FRain. Passing clouds.13 mph100%29.95 "Hg2 mi
Weather by CustomWeather, © 2016

See weather overviewHow to use our weather pages